Location: Excel
(51.3833°N, 110.5667°W)
Time: 20:32:13
(UTC+00:00)

Envisat - Pass Details

Date: 08 December 2021
Orbit: 764 x 766 km, 98.2° (Epoch: 26 January)

Event Time Altitude Azimuth Distance (km) Brightness Sun altitude
Rises 01:00:10 0° 218° (SW) 3,224 7.2 -15.5°
Reaches altitude 10° 01:03:40 10° 244° (WSW) 2,305 6.8 -16.0°
Maximum altitude 01:06:15 14° 275° (W) 2,048 6.2 -16.4°
Drops below altitude 10° 01:08:50 10° 306° (NW) 2,314 6.0 -16.8°
Sets 01:12:22 0° 331° (NNW) 3,247 6.4 -17.3°
